Flag for United Kingdom Weather past 2 weeks in Huddersfield, England, United Kingdom

Now
41 °F

Sprinkles. Scattered clouds.


Feels Like: 32 °F
Forecast: 39 / 46 °F
Wind: 17 mph from Northwest

Location: Leeds And Bradford

Current Time: Dec 20, 2014 at 10:27:57 AM

Latest Report: Dec 20, 2014 at 9:50 AM


Visibility: N/A

Pressure: 30.09 "Hg

Humidity: 93%

Dew point: 39 °F

Location of HuddersfieldLocation

Historic Weather in Huddersfield — Graph

°F

Huddersfield temperature yesterday

Maximum temperature yesterday: 46 °F (at 12:20 AM)
Minimum temperature yesterday: 39 °F (at 8:50 AM)
Average temperature yesterday: 41 °F

Past Weeks' High & Low Weather Summary

 TemperatureHumidityPressure
High54 °F (Dec 18, 1:20 PM)100% (Dec 6, 10:20 PM)30.30 "Hg (Dec 6, 10:20 PM)
Low28 °F (Dec 6, 2:50 AM)70% (Dec 5, 12:50 PM)29.12 "Hg (Dec 12, 4:20 AM)
Average40 °F90%29.76 "Hg
* Reported Dec 5 9:20 AM — Dec 20 9:20 AM, Huddersfield, Weather by CustomWeather, © 2014

Note: Actual official high and low records may vary slightly from our data, if they occured in-between our weather recording intervals... More about our weather records

Advertising

Huddersfield weather history for previous 24 hours

 ConditionsComfort  
Time TempWeatherWind HumidityBarometerVisibility
9:20 AM
Dec 20
43 °FSprinkles. Scattered clouds.23 mph81%30.09 "HgN/A
8:50 AM43 °FSprinkles. Partly sunny.23 mph81%30.07 "HgN/A
8:20 AM43 °FSprinkles. Passing clouds.24 mph81%30.07 "HgN/A
7:50 AM43 °FSprinkles. Passing clouds.23 mph76%30.04 "HgN/A
7:20 AM43 °FSprinkles. Passing clouds.22 mph81%30.04 "HgN/A
6:50 AM43 °FLight rain. Passing clouds.20 mph81%30.04 "HgN/A
6:20 AM43 °FSprinkles. Passing clouds.23 mph81%30.01 "HgN/A
5:50 AM41 °FSprinkles. Passing clouds.22 mph87%29.98 "HgN/A
5:20 AM43 °FPassing clouds.26 mph81%29.98 "HgN/A
4:50 AM43 °FPassing clouds.26 mph81%29.98 "HgN/A
4:20 AM43 °FSprinkles. Passing clouds.26 mph81%29.98 "HgN/A
3:50 AM43 °FSprinkles. Passing clouds.25 mph81%29.98 "HgN/A
3:20 AM43 °FSprinkles. Passing clouds.22 mph81%29.98 "HgN/A
2:50 AM43 °FSprinkles. Passing clouds.26 mph81%29.98 "HgN/A
2:20 AM43 °FPassing clouds.25 mph81%29.95 "HgN/A
1:50 AM43 °FPassing clouds.25 mph81%29.95 "HgN/A
1:20 AM41 °FPassing clouds.21 mph87%29.98 "HgN/A
12:50 AM41 °FPassing clouds.20 mph87%29.98 "HgN/A
12:20 AM41 °FSprinkles. Passing clouds.20 mph87%29.98 "HgN/A
11:50 PM
Dec 19
41 °FSprinkles. Passing clouds.20 mph87%29.98 "HgN/A
11:20 PM41 °FSprinkles. Passing clouds.16 mph87%29.98 "HgN/A
10:50 PM41 °FSprinkles. Passing clouds.18 mph87%29.98 "HgN/A
10:20 PM41 °FSprinkles. Passing clouds.21 mph87%29.98 "HgN/A
9:50 PM41 °FSprinkles. Passing clouds.25 mph87%29.98 "HgN/A
9:20 PM41 °FSprinkles. Passing clouds.24 mph87%29.95 "HgN/A
8:50 PM41 °FSprinkles. Passing clouds.26 mph87%29.95 "HgN/A
8:20 PM39 °FPassing clouds.20 mph93%29.95 "HgN/A
7:50 PM41 °FPassing clouds.22 mph81%29.95 "HgN/A
7:20 PM41 °FSprinkles. Passing clouds.24 mph87%29.95 "HgN/A
6:50 PM41 °FSprinkles. Passing clouds.26 mph87%29.92 "HgN/A
6:20 PM41 °FSprinkles. Passing clouds.25 mph81%29.92 "HgN/A
5:50 PM41 °FSprinkles. Passing clouds.29 mph81%29.89 "HgN/A
5:20 PM41 °FSprinkles. Passing clouds.30 mph81%29.86 "HgN/A
4:50 PM41 °FSprinkles. Passing clouds.30 mph81%29.86 "HgN/A
4:20 PM41 °FSprinkles. Passing clouds.30 mph81%29.83 "HgN/A
3:50 PM39 °FSprinkles. Passing clouds.30 mph93%29.83 "Hg4 mi
3:20 PM41 °FScattered showers. Passing clouds.31 mph81%29.80 "HgN/A
2:50 PM41 °FSprinkles. Scattered clouds.33 mph81%29.80 "HgN/A
2:20 PM41 °FPassing clouds.35 mph87%29.77 "HgN/A
1:50 PM41 °FRain showers. Passing clouds.37 mph81%29.77 "Hg3 mi
1:20 PM43 °FSprinkles. Passing clouds.35 mph76%29.77 "HgN/A
12:50 PM43 °FPassing clouds.35 mph76%29.77 "HgN/A
12:20 PM43 °FPassing clouds.29 mph76%29.77 "HgN/A
11:50 AM43 °FPassing clouds.26 mph71%29.77 "HgN/A
11:20 AM43 °FPassing clouds.28 mph76%29.77 "HgN/A
10:50 AM41 °FPassing clouds.22 mph81%29.77 "HgN/A
10:20 AM41 °FPassing clouds.22 mph81%29.77 "HgN/A
Weather by CustomWeather, © 2014

See weather overviewHow to use our weather pages